Location: Boiro
(42.6475°N, 8.8834°W)
Time: 22:37:11
(UTC+01:00)

Altair - Pass Details

Date: 02 December 2021
Orbit: 1501 x 1683 km, 47.2° (Epoch: 18 January)

Event Time Altitude Azimuth Distance (km) Brightness Sun altitude
Rises 17:04:00 0° 224° (SW) 4,791 12.5 8.0°
Reaches altitude 10° 17:07:11 10° 221° (SW) 3,783 12.0 7.6°
Maximum altitude 17:16:30 61° 144° (SE) 1,722 8.0 6.2°
Drops below altitude 10° 17:25:33 10° 67° (ENE) 3,675 8.9 4.9°
Sets 17:28:35 0° 64° (ENE) 4,648 9.4 4.4°
